Location: Cossonay
(46.5833°N, 6.4167°E)
Time: 21:10:09
(UTC+00:00)

STARLINK-1257 - Pass Details

Date: 03 October 2020
Orbit: 549 x 550 km, 53.0° (Epoch: 22 October)

Event Time Altitude Azimuth Distance (km) Brightness Sun altitude
Exits shadow 04:46:09 - 235° (SW) 1,916 5.9 -9.4°
Reaches altitude 10° 04:46:24 10° 235° (SW) 1,817 5.7 -9.3°
Maximum altitude 04:50:32 82° 149° (SSE) 559 3.7 -8.6°
Drops below altitude 10° 04:54:42 10° 61° (ENE) 1,826 7.4 -7.9°
Sets 04:56:56 0° 61° (ENE) 2,723 8.4 -7.5°
